Flag for Canada Weather past 2 weeks in Regina, Saskatchewan, Canada

Now
72 °F

Passing clouds.


Feels Like: 76 °F
Forecast: 55 / 80 °F
Wind: 3 mph from Northwest

Location: Regina Weather Station

Current Time: May 24, 2015 at 8:23:28 PM

Latest Report: May 24, 2015 at 8:00 PM


Visibility: 15 mi

Pressure: 29.91 "Hg

Humidity: 29%

Dew point: 37 °F

Location of ReginaLocation

Historic Weather in Regina — Graph

°F

Regina temperature yesterday

Maximum temperature yesterday: 79 °F (at 2:00 PM)
Minimum temperature yesterday: 48 °F (at 3:00 AM)
Average temperature yesterday: 64 °F

Past Weeks' High & Low Weather Summary

 TemperatureHumidityPressure
High81 °F (May 24, 2:00 PM)93% (May 13, 4:00 AM)30.56 "Hg (May 13, 4:00 AM)
Low25 °F (May 18, 2:00 AM)15% (May 21, 2:00 PM)29.85 "Hg (May 16, 1:00 PM)
Average52 °F50%30.18 "Hg
* Reported May 9 7:00 PM — May 24 7:00 PM, Regina, Weather by CustomWeather, © 2015

Note: Actual official high and low records may vary slightly from our data, if they occured in-between our weather recording intervals... More about our weather records

Advertising

Regina weather history for previous 24 hours

 ConditionsComfort  
Time TempWeatherWind HumidityBarometerVisibility
7:00 PM
Sun, May 24
75 °FPassing clouds.No wind24%29.93 "Hg15 mi
6:00 PM73 °FBroken clouds.14 mph25%29.95 "Hg15 mi
5:00 PM77 °FBroken clouds.3 mph24%29.96 "Hg15 mi
4:00 PM81 °FBroken clouds.9 mph20%29.97 "Hg15 mi
3:00 PM79 °FPartly sunny.10 mph18%29.97 "Hg15 mi
2:00 PM81 °FPartly sunny.5 mph20%29.98 "Hg15 mi
1:00 PM77 °FPartly sunny.7 mph24%30.00 "Hg15 mi
12:00 PM75 °FBroken clouds.7 mph25%30.02 "Hg15 mi
11:00 AM77 °FPassing clouds.7 mph22%30.03 "Hg15 mi
10:00 AM73 °FPassing clouds.2 mph36%30.05 "Hg15 mi
9:00 AM66 °FPassing clouds.3 mph43%30.06 "Hg15 mi
8:00 AM61 °FPassing clouds.3 mph48%30.08 "Hg15 mi
7:00 AM55 °FPassing clouds.5 mph55%30.09 "Hg15 mi
6:00 AM48 °FPassing clouds.2 mph62%30.10 "Hg15 mi
5:00 AM43 °FPassing clouds.3 mph71%30.10 "Hg15 mi
4:00 AM45 °FPassing clouds.3 mph76%30.11 "Hg15 mi
3:00 AM46 °FClear.8 mph62%30.11 "Hg15 mi
2:00 AM52 °FClear.5 mph54%30.11 "Hg15 mi
1:00 AM50 °FClear.3 mph54%30.11 "Hg15 mi
12:00 AM52 °FClear.2 mph47%30.11 "Hg15 mi
11:00 PM
Sat, May 23
55 °FClear.3 mph47%30.10 "Hg15 mi
10:00 PM61 °FPassing clouds.7 mph36%30.09 "Hg15 mi
9:00 PM66 °FPassing clouds.6 mph30%30.09 "Hg15 mi
8:00 PM70 °FPassing clouds.7 mph33%30.09 "Hg15 mi
Weather by CustomWeather, © 2015

See weather overviewHow to use our weather pages